カタログに戻る

SL-12 DEB

LostHEO
NORAD 35085·DEBRIS·🇷🇺 Russia

打ち上げ Apr 4, 1991 から Baikonur Cosmodrome

Loading…

次のパス (今後24時間)

TLE

古いSource: Space-Track

元期: Nov 17, 2009, 07:00 UTC

1 35085U 91025AF  09321.29187490 -.00000052  00000-0  10000-3 0  9995
2 35085  65.7136  75.8612 4970492   5.6303 311.8435  4.32258261  7366

AllMySatでSL-12 DEBをリアルタイム追跡

Download on the App Store